User: anonymous
Location: Caltech
(34.1382°N, 118.1253°W)
Time: 21:35:49
(UTC-07:00)
Language:

NOSS 3-2 (A) - Orbit

View from above orbital plane
View from above orbital plane
View from above satellite
View from above satellite

Ground track
Ground track

The orbit data is extracted from the following two-line orbital elements,

1 28095U 03054A   14240.44739528 0.00000030  00000-0  47007-4 0    07
2 28095  63.4290  44.1934 0216000 357.8518   2.1482 13.41288702    04
Epoch (UTC): 28 August 2014 10:44:14
Eccentricity: 0.0216000
inclination: 63.4290°
perigee height: 943 km
apogee height: 1266 km
right ascension of ascending node: 44.1934°
argument of perigee: 357.8518°
revolutions per day: 13.41288702
mean anomaly at epoch: 2.1482°
orbit number at epoch: 0

The dashed part of the orbit path shows where the satellite is in the earth's shadow,  

DLR